Time,TemperatureF,DewpointF,PressureIn,WindDirection,WindDirectionDegrees,WindSpeedMPH,WindSpeedGustMPH,Humidity,HourlyPrecipIn,Conditions,Clouds,dailyrainin,SoftwareType,DateUTC
2013-05-07 00:03:00,58.0,53.0,30.11,ESE,109,2.0,5.0,83,0.00,,,0.00,,2013-05-07 04:03:00,
2013-05-07 00:12:00,58.0,53.0,30.11,ESE,109,2.0,5.0,83,0.00,,,0.00,,2013-05-07 04:12:00,
2013-05-07 00:23:00,58.0,53.0,30.12,East,93,3.0,5.0,83,0.00,,,0.00,,2013-05-07 04:23:00,
2013-05-07 00:33:00,58.0,53.0,30.11,East,89,4.0,7.0,83,0.00,,,0.00,,2013-05-07 04:33:00,
2013-05-07 00:42:00,58.0,53.0,30.11,East,89,4.0,7.0,83,0.00,,,0.00,,2013-05-07 04:42:00,
2013-05-07 00:53:00,58.0,53.0,30.12,East,97,4.0,6.0,83,0.00,,,0.00,,2013-05-07 04:53:00,
2013-05-07 01:02:00,57.0,52.0,30.11,ESE,104,4.0,5.0,83,0.00,,,0.00,,2013-05-07 05:02:00,
2013-05-07 01:12:00,57.0,52.0,30.11,ESE,104,4.0,5.0,83,0.00,,,0.00,,2013-05-07 05:12:00,
2013-05-07 01:22:00,57.0,52.0,30.11,ESE,110,3.0,6.0,84,0.00,,,0.00,,2013-05-07 05:22:00,
2013-05-07 01:32:00,57.0,52.0,30.11,ESE,103,4.0,4.0,84,0.00,,,0.00,,2013-05-07 05:32:00,
2013-05-07 01:42:00,57.0,52.0,30.11,ESE,103,4.0,4.0,84,0.00,,,0.00,,2013-05-07 05:42:00,
2013-05-07 01:52:00,56.0,51.0,30.11,East,91,5.0,7.0,84,0.00,,,0.00,,2013-05-07 05:52:00,
2013-05-07 02:02:00,55.0,51.0,30.10,ESE,106,3.0,4.0,85,0.00,,,0.00,,2013-05-07 06:02:00,
2013-05-07 02:12:00,55.0,51.0,30.10,ESE,106,3.0,4.0,85,0.00,,,0.00,,2013-05-07 06:12:00,
2013-05-07 02:22:00,55.0,51.0,30.09,East,86,4.0,6.0,87,0.00,,,0.00,,2013-05-07 06:22:00,
2013-05-07 02:32:00,55.0,52.0,30.09,East,100,2.0,4.0,88,0.00,,,0.00,,2013-05-07 06:32:00,
2013-05-07 02:42:00,55.0,52.0,30.09,East,100,2.0,4.0,88,0.00,,,0.00,,2013-05-07 06:42:00,
2013-05-07 02:52:00,55.0,52.0,30.08,East,92,3.0,4.0,88,0.00,,,0.00,,2013-05-07 06:52:00,
2013-05-07 03:02:00,55.0,52.0,30.08,ENE,69,4.0,5.0,89,0.00,,,0.00,,2013-05-07 07:02:00,
2013-05-07 03:11:00,55.0,52.0,30.08,ENE,69,4.0,5.0,89,0.00,,,0.00,,2013-05-07 07:11:00,
2013-05-07 03:22:00,54.0,51.0,30.07,ENE,75,3.0,6.0,90,0.00,,,0.00,,2013-05-07 07:22:00,
2013-05-07 03:32:00,54.0,51.0,30.07,East,79,4.0,6.0,90,0.00,,,0.00,,2013-05-07 07:32:00,
2013-05-07 03:42:00,54.0,51.0,30.07,East,79,4.0,6.0,90,0.00,,,0.00,,2013-05-07 07:42:00,
2013-05-07 03:52:00,55.0,52.0,30.06,ENE,72,4.0,6.0,90,0.00,,,0.00,,2013-05-07 07:52:00,
2013-05-07 04:02:00,54.0,51.0,30.06,East,98,4.0,9.0,90,0.00,,,0.00,,2013-05-07 08:02:00,
2013-05-07 04:11:00,54.0,51.0,30.06,East,98,4.0,9.0,90,0.00,,,0.00,,2013-05-07 08:11:00,
2013-05-07 04:21:00,54.0,51.0,30.06,East,91,3.0,8.0,90,0.00,,,0.00,,2013-05-07 08:21:00,
2013-05-07 04:32:00,54.0,51.0,30.06,East,89,4.0,6.0,91,0.00,,,0.00,,2013-05-07 08:32:00,
2013-05-07 04:42:00,54.0,51.0,30.06,East,89,4.0,6.0,91,0.00,,,0.00,,2013-05-07 08:42:00,
2013-05-07 04:52:00,54.0,51.0,30.06,East,98,4.0,6.0,91,0.00,,,0.00,,2013-05-07 08:52:00,
2013-05-07 05:01:00,53.0,50.0,30.07,East,92,4.0,5.0,91,0.00,,,0.00,,2013-05-07 09:01:00,
2013-05-07 05:11:00,53.0,50.0,30.07,East,92,4.0,5.0,91,0.00,,,0.00,,2013-05-07 09:11:00,
2013-05-07 05:22:00,53.0,50.0,30.06,East,91,4.0,7.0,91,0.00,,,0.00,,2013-05-07 09:22:00,
2013-05-07 05:33:00,53.0,51.0,30.06,East,92,5.0,8.0,92,0.00,,,0.00,,2013-05-07 09:33:00,
2013-05-07 05:42:00,53.0,51.0,30.06,East,92,5.0,8.0,92,0.00,,,0.00,,2013-05-07 09:42:00,
2013-05-07 05:52:00,53.0,51.0,30.07,East,84,5.0,6.0,92,0.00,,,0.00,,2013-05-07 09:52:00,
2013-05-07 06:03:00,53.0,51.0,30.07,East,79,4.0,7.0,92,0.00,,,0.00,,2013-05-07 10:03:00,
2013-05-07 06:12:00,53.0,51.0,30.07,East,79,4.0,7.0,92,0.00,,,0.00,,2013-05-07 10:12:00,
2013-05-07 06:23:00,53.0,51.0,30.07,East,81,4.0,7.0,92,0.00,,,0.00,,2013-05-07 10:23:00,
2013-05-07 06:32:00,53.0,51.0,30.07,ENE,64,3.0,5.0,92,0.00,,,0.00,,2013-05-07 10:32:00,
2013-05-07 06:42:00,53.0,51.0,30.07,ENE,66,2.0,4.0,92,0.00,,,0.00,,2013-05-07 10:42:00,
2013-05-07 06:52:00,53.0,51.0,30.07,ENE,66,2.0,4.0,92,0.00,,,0.00,,2013-05-07 10:52:00,
2013-05-07 07:02:00,53.0,51.0,30.07,ENE,71,3.0,4.0,92,0.00,,,0.00,,2013-05-07 11:02:00,
2013-05-07 07:12:00,53.0,51.0,30.07,ENE,71,3.0,4.0,92,0.00,,,0.00,,2013-05-07 11:12:00,
2013-05-07 07:22:00,54.0,52.0,30.07,East,80,3.0,6.0,92,0.00,,,0.00,,2013-05-07 11:22:00,
2013-05-07 07:32:00,54.0,52.0,30.08,ENE,67,5.0,8.0,92,0.00,,,0.00,,2013-05-07 11:32:00,
2013-05-07 07:42:00,54.0,52.0,30.08,ENE,67,5.0,8.0,92,0.00,,,0.00,,2013-05-07 11:42:00,
2013-05-07 07:52:00,54.0,52.0,30.08,East,96,5.0,8.0,92,0.00,,,0.00,,2013-05-07 11:52:00,
2013-05-07 08:02:00,54.0,52.0,30.08,East,88,6.0,10.0,92,0.00,,,0.00,,2013-05-07 12:02:00,
2013-05-07 08:11:00,54.0,52.0,30.08,East,88,6.0,10.0,92,0.00,,,0.00,,2013-05-07 12:11:00,
2013-05-07 08:21:00,54.0,52.0,30.08,East,85,5.0,7.0,92,0.00,,,0.00,,2013-05-07 12:21:00,
2013-05-07 08:32:00,54.0,52.0,30.08,East,83,5.0,8.0,92,0.00,,,0.00,,2013-05-07 12:32:00,
2013-05-07 08:42:00,54.0,52.0,30.08,East,83,5.0,8.0,92,0.00,,,0.00,,2013-05-07 12:42:00,
2013-05-07 08:52:00,55.0,53.0,30.08,ENE,77,5.0,8.0,92,0.00,,,0.00,,2013-05-07 12:52:00,
2013-05-07 09:02:00,55.0,52.0,30.09,East,86,5.0,8.0,91,0.00,,,0.00,,2013-05-07 13:02:00,
2013-05-07 09:11:00,55.0,52.0,30.09,East,86,5.0,8.0,91,0.00,,,0.00,,2013-05-07 13:11:00,
2013-05-07 09:21:00,55.0,52.0,30.10,East,88,6.0,8.0,91,0.00,,,0.00,,2013-05-07 13:21:00,
2013-05-07 09:32:00,56.0,53.0,30.10,East,83,5.0,7.0,90,0.00,,,0.00,,2013-05-07 13:32:00,
2013-05-07 09:42:00,56.0,53.0,30.10,East,83,5.0,7.0,90,0.00,,,0.00,,2013-05-07 13:42:00,
2013-05-07 09:52:00,56.0,53.0,30.10,ENE,77,5.0,8.0,89,0.00,,,0.00,,2013-05-07 13:52:00,
2013-05-07 10:02:00,57.0,53.0,30.09,ENE,74,4.0,5.0,88,0.00,,,0.00,,2013-05-07 14:02:00,
2013-05-07 10:11:00,57.0,53.0,30.09,ENE,74,4.0,5.0,88,0.00,,,0.00,,2013-05-07 14:11:00,
2013-05-07 10:21:00,57.0,53.0,30.09,East,83,4.0,7.0,88,0.00,,,0.00,,2013-05-07 14:21:00,
2013-05-07 10:32:00,58.0,54.0,30.10,East,88,5.0,6.0,87,0.00,,,0.00,,2013-05-07 14:32:00,
2013-05-07 10:42:00,58.0,54.0,30.10,East,88,5.0,6.0,87,0.00,,,0.00,,2013-05-07 14:42:00,
2013-05-07 10:52:00,59.0,54.0,30.10,ENE,76,5.0,7.0,84,0.00,,,0.00,,2013-05-07 14:52:00,
2013-05-07 11:01:00,60.0,54.0,30.10,ENE,65,5.0,7.0,81,0.00,,,0.00,,2013-05-07 15:01:00,
2013-05-07 11:12:00,60.0,54.0,30.10,ENE,65,5.0,7.0,81,0.00,,,0.00,,2013-05-07 15:12:00,
2013-05-07 11:21:00,62.0,55.0,30.10,East,88,7.0,11.0,77,0.00,,,0.00,,2013-05-07 15:21:00,
2013-05-07 11:33:00,63.0,54.0,30.11,East,94,7.0,11.0,73,0.00,,,0.00,,2013-05-07 15:33:00,
2013-05-07 11:42:00,63.0,54.0,30.11,East,94,7.0,11.0,73,0.00,,,0.00,,2013-05-07 15:42:00,
2013-05-07 11:53:00,63.0,54.0,30.11,East,94,7.0,11.0,73,0.00,,,0.00,,2013-05-07 15:53:00,
2013-05-07 12:03:00,64.0,55.0,30.09,East,80,7.0,10.0,73,0.00,,,0.00,,2013-05-07 16:03:00,
2013-05-07 12:12:00,64.0,56.0,30.09,ENE,57,4.0,9.0,74,0.00,,,0.00,,2013-05-07 16:12:00,
2013-05-07 12:22:00,64.0,56.0,30.09,ENE,57,4.0,9.0,74,0.00,,,0.00,,2013-05-07 16:22:00,
2013-05-07 12:32:00,65.0,56.0,30.09,East,81,5.0,8.0,72,0.00,,,0.00,,2013-05-07 16:32:00,
2013-05-07 12:41:00,65.0,56.0,30.09,East,81,5.0,8.0,72,0.00,,,0.00,,2013-05-07 16:41:00,
2013-05-07 12:51:00,65.0,56.0,30.09,East,81,5.0,8.0,72,0.00,,,0.00,,2013-05-07 16:51:00,
2013-05-07 13:01:00,66.0,55.0,30.08,East,94,7.0,9.0,68,0.00,,,0.00,,2013-05-07 17:01:00,
2013-05-07 13:12:00,66.0,55.0,30.08,East,94,7.0,9.0,68,0.00,,,0.00,,2013-05-07 17:12:00,
2013-05-07 13:21:00,68.0,57.0,30.08,ESE,105,5.0,10.0,67,0.00,,,0.00,,2013-05-07 17:21:00,
2013-05-07 13:32:00,68.0,56.0,30.07,East,93,6.0,9.0,66,0.00,,,0.00,,2013-05-07 17:32:00,
2013-05-07 13:41:00,68.0,56.0,30.07,ENE,78,7.0,11.0,65,0.00,,,0.00,,2013-05-07 17:41:00,
2013-05-07 13:52:00,68.0,56.0,30.07,ENE,78,7.0,11.0,65,0.00,,,0.00,,2013-05-07 17:52:00,
2013-05-07 14:01:00,68.0,56.0,30.07,ENE,78,7.0,11.0,65,0.00,,,0.00,,2013-05-07 18:01:00,
2013-05-07 14:11:00,68.0,56.0,30.07,ENE,78,7.0,11.0,65,0.00,,,0.00,,2013-05-07 18:11:00,
2013-05-07 14:21:00,62.0,57.0,30.08,SE,136,2.0,4.0,84,0.05,,,0.05,,2013-05-07 18:21:00,
2013-05-07 14:32:00,62.0,58.0,30.08,ESE,108,3.0,5.0,86,0.09,,,0.09,,2013-05-07 18:32:00,
2013-05-07 14:42:00,62.0,58.0,30.08,ESE,108,3.0,5.0,86,0.09,,,0.09,,2013-05-07 18:42:00,
2013-05-07 14:52:00,62.0,58.0,30.08,ESE,108,3.0,5.0,86,0.09,,,0.09,,2013-05-07 18:52:00,
2013-05-07 15:02:00,63.0,58.0,30.06,East,92,4.0,6.0,85,0.07,,,0.10,,2013-05-07 19:02:00,
2013-05-07 15:11:00,63.0,58.0,30.06,East,92,4.0,6.0,85,0.07,,,0.10,,2013-05-07 19:11:00,
2013-05-07 15:21:00,64.0,59.0,30.06,East,86,4.0,6.0,83,0.05,,,0.10,,2013-05-07 19:21:00,
2013-05-07 15:32:00,65.0,59.0,30.05,ESE,106,3.0,6.0,82,0.01,,,0.10,,2013-05-07 19:32:00,
2013-05-07 15:42:00,65.0,59.0,30.05,ESE,106,3.0,6.0,82,0.01,,,0.10,,2013-05-07 19:42:00,
2013-05-07 15:52:00,64.0,59.0,30.04,East,97,3.0,5.0,83,0.00,,,0.10,,2013-05-07 19:52:00,
2013-05-07 16:02:00,65.0,59.0,30.04,ESE,105,3.0,4.0,82,0.00,,,0.10,,2013-05-07 20:02:00,
2013-05-07 16:12:00,65.0,59.0,30.04,ESE,105,3.0,4.0,82,0.00,,,0.10,,2013-05-07 20:12:00,
2013-05-07 16:22:00,66.0,58.0,30.04,ESE,104,6.0,10.0,76,0.00,,,0.10,,2013-05-07 20:22:00,
2013-05-07 16:32:00,66.0,57.0,30.03,East,97,6.0,9.0,73,0.00,,,0.10,,2013-05-07 20:32:00,
2013-05-07 16:42:00,66.0,57.0,30.03,East,97,6.0,9.0,73,0.00,,,0.10,,2013-05-07 20:42:00,
2013-05-07 16:51:00,67.0,57.0,30.03,ESE,118,6.0,9.0,71,0.00,,,0.10,,2013-05-07 20:51:00,
2013-05-07 17:01:00,67.0,56.0,30.03,ESE,110,6.0,10.0,69,0.00,,,0.10,,2013-05-07 21:01:00,
2013-05-07 17:11:00,67.0,56.0,30.03,ESE,110,6.0,10.0,69,0.00,,,0.10,,2013-05-07 21:11:00,
2013-05-07 17:22:00,63.0,56.0,30.04,ESE,102,9.0,13.0,79,0.01,,,0.11,,2013-05-07 21:22:00,
2013-05-07 17:32:00,62.0,57.0,30.04,East,98,7.0,9.0,83,0.01,,,0.11,,2013-05-07 21:32:00,
2013-05-07 17:42:00,62.0,57.0,30.04,East,98,7.0,9.0,83,0.01,,,0.11,,2013-05-07 21:42:00,
2013-05-07 17:52:00,62.0,58.0,30.03,East,84,5.0,7.0,87,0.04,,,0.14,,2013-05-07 21:52:00,
2013-05-07 18:02:00,62.0,58.0,30.03,East,100,5.0,9.0,87,0.05,,,0.15,,2013-05-07 22:02:00,
2013-05-07 18:13:00,62.0,58.0,30.03,East,100,5.0,9.0,87,0.05,,,0.15,,2013-05-07 22:13:00,
2013-05-07 18:22:00,62.0,58.0,30.02,East,93,6.0,8.0,86,0.04,,,0.15,,2013-05-07 22:22:00,
2013-05-07 18:33:00,63.0,58.0,30.02,East,101,6.0,9.0,85,0.02,,,0.15,,2013-05-07 22:33:00,
2013-05-07 18:42:00,63.0,58.0,30.01,East,90,6.0,9.0,85,0.01,,,0.15,,2013-05-07 22:42:00,
2013-05-07 18:52:00,63.0,58.0,30.01,East,90,6.0,9.0,85,0.01,,,0.15,,2013-05-07 22:52:00,
2013-05-07 19:02:00,63.0,58.0,30.01,East,90,6.0,9.0,85,0.01,,,0.15,,2013-05-07 23:02:00,
2013-05-07 19:12:00,63.0,58.0,30.01,East,90,6.0,9.0,85,0.01,,,0.15,,2013-05-07 23:12:00,
2013-05-07 19:21:00,63.0,58.0,30.02,East,88,5.0,7.0,84,0.00,,,0.15,,2013-05-07 23:21:00,
2013-05-07 19:32:00,63.0,58.0,30.02,East,88,5.0,7.0,84,0.00,,,0.15,,2013-05-07 23:32:00,
2013-05-07 19:42:00,62.0,57.0,30.03,East,91,6.0,9.0,85,0.00,,,0.15,,2013-05-07 23:42:00,
2013-05-07 19:52:00,62.0,57.0,30.03,East,91,6.0,9.0,85,0.00,,,0.15,,2013-05-07 23:52:00,
2013-05-07 20:02:00,62.0,58.0,30.03,East,97,6.0,8.0,86,0.00,,,0.15,,2013-05-08 00:02:00,
2013-05-07 20:12:00,62.0,58.0,30.03,East,97,6.0,8.0,86,0.00,,,0.15,,2013-05-08 00:12:00,
2013-05-07 20:22:00,62.0,58.0,30.03,East,97,6.0,8.0,86,0.00,,,0.15,,2013-05-08 00:22:00,
2013-05-07 20:32:00,61.0,57.0,30.02,East,98,5.0,8.0,87,0.01,,,0.16,,2013-05-08 00:32:00,
2013-05-07 20:42:00,61.0,57.0,30.03,East,96,5.0,7.0,87,0.01,,,0.16,,2013-05-08 00:42:00,
2013-05-07 20:51:00,61.0,57.0,30.03,East,96,5.0,7.0,87,0.01,,,0.16,,2013-05-08 00:51:00,
2013-05-07 21:02:00,61.0,57.0,30.02,East,96,7.0,12.0,86,0.01,,,0.16,,2013-05-08 01:02:00,
2013-05-07 21:11:00,61.0,57.0,30.02,East,96,7.0,12.0,86,0.01,,,0.16,,2013-05-08 01:11:00,
2013-05-07 21:22:00,61.0,57.0,30.03,East,99,6.0,8.0,86,0.00,,,0.16,,2013-05-08 01:22:00,
2013-05-07 21:32:00,61.0,57.0,30.03,East,90,5.0,9.0,86,0.00,,,0.16,,2013-05-08 01:32:00,
2013-05-07 21:42:00,61.0,57.0,30.03,East,94,7.0,11.0,86,0.00,,,0.16,,2013-05-08 01:42:00,
2013-05-07 21:52:00,61.0,57.0,30.03,East,94,7.0,11.0,86,0.00,,,0.16,,2013-05-08 01:52:00,
2013-05-07 22:02:00,61.0,56.0,30.03,East,86,7.0,9.0,85,0.00,,,0.16,,2013-05-08 02:02:00,
2013-05-07 22:12:00,61.0,56.0,30.03,East,86,7.0,9.0,85,0.00,,,0.16,,2013-05-08 02:12:00,
2013-05-07 22:22:00,61.0,56.0,30.03,East,89,7.0,12.0,85,0.00,,,0.16,,2013-05-08 02:22:00,
2013-05-07 22:32:00,61.0,56.0,30.04,East,92,7.0,10.0,85,0.02,,,0.18,,2013-05-08 02:32:00,
2013-05-07 22:42:00,60.0,57.0,30.05,East,90,7.0,10.0,89,0.21,,,0.37,,2013-05-08 02:42:00,
2013-05-07 22:52:00,60.0,57.0,30.05,East,90,7.0,10.0,89,0.21,,,0.37,,2013-05-08 02:52:00,
2013-05-07 23:02:00,60.0,56.0,30.04,East,92,6.0,10.0,88,0.22,,,0.38,,2013-05-08 03:02:00,
2013-05-07 23:11:00,60.0,56.0,30.04,East,92,6.0,10.0,88,0.22,,,0.38,,2013-05-08 03:11:00,
2013-05-07 23:21:00,59.0,56.0,30.04,ESE,104,6.0,7.0,89,0.22,,,0.38,,2013-05-08 03:21:00,
2013-05-07 23:33:00,59.0,56.0,30.02,East,84,5.0,7.0,89,0.11,,,0.38,,2013-05-08 03:33:00,
2013-05-07 23:43:00,59.0,56.0,30.02,East,84,5.0,7.0,89,0.11,,,0.38,,2013-05-08 03:43:00,
2013-05-07 23:52:00,59.0,56.0,30.02,East,97,6.0,9.0,89,0.01,,,0.38,,2013-05-08 03:52:00,